NIUSat
1 42766U 17036B 17277.92124049 .00002058 00000-0 99314-4 0 9992
2 42766 097.4390 336.2532 0014965 232.7058 127.2813 15.19728462015752
LituanicaSAT 2
1 42768U 17036D 17277.84245760 .00004078 00000-0 19155-3 0 9997
2 42768 097.4393 336.2027 0014996 236.3059 123.6747 15.20090061015756
InflateSail
1 42770U 17036F 17245.93730135 .99999999 00000-0 73960-1 0 9995
2 42770 097.4262 306.2162 0014869 278.7167 080.9844 16.07641391010932
Aalto 1
1 42775U 17036L 17277.82220155 .00001701 00000-0 81612-4 0 9992
2 42775 097.4388 336.2303 0013108 233.8082 126.1942 15.20189549015695
URSA MAIOR
1 42776U 17036M 17277.81953164 .00001828 00000-0 87365-4 0 9996
2 42776 097.4389 336.2370 0012944 234.1869 125.8164 15.20233659015699
Max Valier Sat
1 42778U 17036P 17277.72733799 .00002056 00000-0 96705-4 0 9990
2 42778 097.4408 336.2282 0011438 239.7834 120.2269 15.20646862015672
Pegasus
1 42784U 17036V 17277.71240578 .00002412 00000-0 11215-3 0 9992
2 42784 097.4391 336.2249 0011058 248.2855 111.7204 15.20891931015672
NUDATSat
1 42787U 17036Y 17277.89961679 .00003345 00000-0 15318-3 0 9990
2 42787 097.4392 336.4329 0010745 247.5117 112.4981 15.21137583015545
SUCHAI 1
1 42788U 17036Z 17277.90254618 .00002718 00000-0 12546-3 0 9994
2 42788 097.4389 336.4278 0010734 247.5965 112.4133 15.21034939015779
SKCUBE
1 42789U 17036AA 17277.90012267 .00002525 00000-0 11669-3 0 9998
2 42789 097.4388 336.4299 0010555 247.5193 112.4925 15.21055379015697
VZLUSAT 1
1 42790U 17036AB 17277.89411364 .00002937 00000-0 13473-3 0 9991
2 42790 097.4387 336.4348 0010297 247.9445 112.0698 15.21180285015698
VENTA 1
1 42791U 17036AC 17277.89312309 .00002315 00000-0 10696-3 0 9995
2 42791 097.4388 336.4385 0010151 248.3637 111.6518 15.21149834015688
Robusta 1B
1 42792U 17036AD 17277.89162034 .00002574 00000-0 11846-3 0 9999
2 42792 097.4385 336.4373 0010113 248.8537 111.1618 15.21187712015701
D-SAT
1 42794U 17036AF 17277.71629659 .00000459 00000-0 45466-4 0 9999
2 42794 097.6306 336.4864 0128728 052.3245 308.9567 14.90655534015660
BIRD-J
1 42820U 98067MU 17277.04935162 .00023588 00000-0 31742-3 0 9996
2 42820 051.6386 214.4076 0001446 295.8629 064.2214 15.57741502013827
BIRD-G
1 42821U 98067MV 17277.05297103 .00022966 00000-0 31055-3 0 9990
2 42821 051.6385 214.4317 0001518 300.5625 059.5217 15.57628770013804
BIRD-M
1 42822U 98067MW 17277.88770503 .00022780 00000-0 30742-3 0 9998
2 42822 051.6389 210.2569 0001514 306.9440 053.1414 15.57686973013935
BIRD-B
1 42823U 98067MX 17277.24812042 .00023839 00000-0 32177-3 0 9994
2 42823 051.6389 213.4880 0005049 321.1880 038.8749 15.57644421013833
BIRD-N
1 42824U 98067MY 17277.25159072 .00023768 00000-0 32173-3 0 9990
2 42824 051.6391 213.5115 0004912 323.0357 037.0297 15.57569595013834
TechnoSat
1 42829U 17042E 17277.90011257 .00000445 00000-0 50812-4 0 9991
2 42829 097.6075 184.6222 0013682 334.2966 025.7571 14.90682891012298
Mayak
1 42830U 17042F 17277.89618157 .00001577 00000-0 16543-3 0 9992
2 42830 097.6081 184.6337 0014055 332.4091 027.6380 14.90831881012292
OBJECT MZ
1 42910U 98067MZ 17277.42901930 .00019481 00000-0 27451-3 0 9993
2 42910 051.6381 213.1870 0006614 345.5416 014.5385 15.56612624007448
OBJECT NA
1 42911U 98067NA 17277.94282286 .00019742 00000-0 27729-3 0 9995
2 42911 051.6399 210.6277 0005975 343.4844 016.5953 15.56695032007506
OBJECT NB
1 42912U 98067NB 17277.88400569 .00020038 00000-0 28370-3 0 9998
2 42912 051.6368 210.9659 0005761 357.9776 002.1192 15.56468549007515
OBJECT NC
1 42913U 98067NC 17277.35811593 .00031557 00000-0 42819-3 0 9996
2 42913 051.6379 213.4623 0004954 013.0158 347.0960 15.57341123007438
OBJECT ND
1 42914U 98067ND 17277.88606176 .00018942 00000-0 26946-3 0 9990
2 42914 051.6393 210.9953 0005506 350.8141 009.2749 15.56382842007480
